リニア彗星

285P/LINEAR (2013)

English version
Home page
Updated on April 29, 2014

---------------------------------------------------------------------

・ プロフィール

符号 285P/2013 K2
検出日 2013年5月18日
検出光度 18.3等
検出者 佐藤英貴(東京)

・ 写真集

・ 軌道要素

Epoch 2013 July 7.0 TT = JDT 2456480.5
T 2013 June 28.85093 TT                                 MPC
q   1.6907732            (2000.0)            P               Q
n   0.10354392     Peri.  177.46517     +0.99729300     -0.05710737
a   4.4914475      Node   186.38787     +0.05798929     +0.99815628
e   0.6235572      Incl.   24.60223     +0.04520970     -0.02056176
P   9.52
From 123 observations 2003 Sept. 19-2013 Oct. 14, mean residual 0".6.

・ 光度変化

        m1 = 14.5 + 5 logΔ + 10.0 log r

---------------------------------------------------------------------

軌道要素はM.P.E.C. 2013-T115に掲載されたものです。
光度グラフはComet for Windowsで作成したものです。

---------------------------------------------------------------------

Copyright(C) Seiichi Yoshida (comet@aerith.net). All rights reserved.